Wind_Speed
36 37 37 36 38 38 38 37 36 34 31 29 27 24 22 21 20 19 17 17 17 18 20 23 26 30 33 36 38 39 40 39 39 39 37 37 36 36 36 36 37 36 36
34 34 36 37 39 39 39 37 35 31 29 27 25 22 19 17 15 13 13 14 14 16 18 20 23 25 29 32 36 39 41 41 41 40 39 36 35 34 34 35 35 36 37
33 35 38 40 41 41 40 37 34 31 29 27 23 20 16 14 13 13 14 15 16 17 19 20 22 24 26 28 31 35 38 40 41 42 41 39 36 35 34 33 34 35 35
36 38 40 41 41 39 38 36 33 31 30 27 23 20 18 16 16 17 18 19 20 20 21 22 24 25 27 27 29 31 34 37 39 41 42 40 39 37 35 34 34 36 36
37 39 39 39 38 37 36 35 34 33 30 27 25 23 21 21 21 22 23 23 23 23 23 24 25 26 27 28 29 29 31 34 36 39 41 41 40 38 37 36 35 35 36
32 34 34 34 34 35 35 36 35 34 31 29 28 26 26 27 27 28 28 27 26 25 25 25 25 26 27 29 30 30 30 31 33 36 39 40 39 39 37 36 35 35 35
27 30 31 32 33 34 36 37 36 35 33 32 31 30 30 31 32 31 30 29 27 26 25 26 26 26 27 29 30 31 30 30 30 32 35 37 38 38 38 37 36 36 36
28 30 33 34 34 35 37 37 37 36 35 34 34 34 34 35 34 33 31 30 28 27 26 26 26 27 27 28 30 30 30 29 29 30 31 34 35 37 37 37 37 37 37
30 32 34 36 37 38 39 39 39 39 39 38 38 38 37 36 35 34 33 32 30 29 27 27 27 27 27 28 29 31 30 29 28 28 28 30 33 34 36 36 37 37 37
34 36 38 39 40 41 42 43 44 45 45 44 43 42 41 39 39 38 37 35 33 32 29 28 28 27 27 28 29 31 30 29 28 27 27 27 30 32 33 35 36 37 37
39 41 43 44 44 45 46 47 49 49 50 50 49 48 46 45 43 42 41 39 37 34 31 29 28 27 27 28 29 30 30 29 28 27 26 25 26 29 31 32 34 35 35
42 44 46 48 48 49 50 51 52 53 54 55 55 54 52 50 49 47 46 43 40 37 34 31 29 28 27 28 29 30 31 30 29 27 25 24 24 25 27 30 31 32 33
45 47 49 50 52 53 54 55 56 58 59 60 61 61 59 57 55 53 50 48 45 41 37 35 32 30 29 29 30 30 31 31 29 28 26 24 23 23 24 26 27 29 30
48 49 51 53 55 57 58 60 61 62 63 65 66 66 66 64 62 59 56 54 50 45 41 38 36 34 33 32 32 32 31 31 30 28 26 24 22 21 21 23 24 26 28
52 54 56 58 60 62 64 66 67 68 70 71 72 73 72 72 71 68 64 60 55 50 44 41 38 37 36 35 34 33 32 31 30 28 26 24 21 20 20 21 23 25 26
60 63 65 67 68 70 72 74 75 75 75 75 76 76 74 73 73 72 68 63 58 52 48 44 42 41 39 38 37 35 34 32 30 28 26 24 21 19 21 23 24 25 26
71 73 75 76 77 79 80 82 83 84 84 83 83 82 80 77 74 71 67 64 60 56 52 48 47 45 43 41 39 38 35 33 31 28 26 24 22 21 21 23 24 26 28
80 80 79 78 76 75 75 76 77 80 83 86 88 89 89 86 84 82 79 75 71 66 61 57 53 50 47 44 41 39 36 34 32 29 27 25 22 21 21 22 24 25 26
75 70 66 62 59 56 56 56 57 60 64 68 71 74 77 78 79 79 79 77 75 71 65 60 56 52 48 45 42 40 37 35 33 30 28 25 22 22 21 22 23 24 25
54 49 45 43 43 43 44 45 44 44 45 47 50 52 53 54 57 60 63 65 66 65 62 58 53 49 47 45 43 40 39 36 34 31 28 26 23 22 22 21 23 23 23
39 39 40 41 42 43 44 43 42 40 38 38 38 38 38 38 40 42 45 49 53 55 55 54 51 49 47 46 44 41 39 37 34 32 29 26 24 22 22 22 23 22 22
41 43 44 45 46 47 47 46 45 44 41 39 37 34 32 31 30 30 32 35 39 44 49 51 51 51 48 46 44 42 40 37 34 31 28 26 24 23 23 23 23 22 21
45 47 48 48 48 48 49 48 46 46 43 41 38 36 33 30 28 27 28 29 31 35 41 47 50 53 50 46 44 43 40 37 33 31 28 25 24 24 24 24 23 23 22
48 49 49 49 49 49 49 49 48 47 45 43 40 37 34 30 27 25 24 23 24 25 29 37 44 51 49 46 45 42 40 35 32 29 27 25 23 24 24 23 23 23 22
50 50 50 49 48 48 48 48 48 47 45 42 40 38 34 30 26 24 23 21 21 20 22 27 34 44 46 44 42 39 37 34 31 29 27 25 24 25 24 23 23 23 22
50 50 48 47 46 46 46 47 46 44 41 39 38 36 34 31 28 25 24 23 22 21 21 23 27 36 42 42 41 39 36 34 32 30 28 26 25 25 23 22 22 22 21
Wind_Direction
264 268 271 275 279 284 290 294 295 293 290 290 291 289 286 283 280 280 283 287 293 298 300 300 297 292 289 285 282 280 278 277 277 276 275 273 271 269 268 268 266 264 263
266 268 271 276 280 287 291 292 293 291 290 290 290 287 283 279 275 274 279 287 295 302 306 307 307 303 297 291 284 279 276 274 273 273 273 272 272 271 268 265 264 263 263
266 270 273 278 282 287 288 289 290 291 291 290 290 286 281 277 275 279 286 291 297 303 309 313 316 316 311 302 294 286 280 274 271 270 269 269 269 269 267 265 264 264 264
266 269 273 277 281 283 284 286 288 289 289 289 287 284 279 277 279 283 287 293 300 305 310 315 318 321 321 315 304 295 287 279 273 269 267 266 266 265 265 264 264 265 265
265 268 271 274 277 279 281 283 286 288 288 286 285 282 276 274 276 280 285 291 297 302 307 312 317 321 323 323 317 306 295 286 277 271 267 265 264 264 263 263 263 263 264
266 265 265 268 271 275 279 282 285 286 286 285 284 280 275 273 274 277 281 286 291 298 304 309 313 318 322 325 324 317 306 295 285 275 269 266 263 262 261 260 261 263 263
270 267 269 271 273 277 280 282 283 283 283 282 281 279 276 275 275 278 280 283 287 294 300 305 309 314 320 325 326 324 316 304 293 282 273 268 263 261 259 259 259 261 263
275 275 277 278 279 280 280 281 281 280 280 279 279 278 277 277 278 279 280 282 286 290 295 300 304 309 316 322 326 325 321 312 301 289 279 270 264 261 259 258 258 260 262
278 277 277 278 279 279 279 278 279 279 278 277 277 276 277 277 278 279 279 282 284 288 291 295 298 303 310 317 323 325 324 317 308 298 286 275 267 262 259 258 258 259 260
279 279 278 278 278 277 277 277 278 278 277 276 274 274 274 275 277 278 279 280 282 285 287 290 292 297 304 310 317 322 323 320 313 305 294 281 270 263 259 258 257 258 259
277 277 277 276 276 275 275 275 275 275 275 275 274 274 273 274 274 276 277 278 279 281 283 285 288 292 298 306 312 317 320 319 315 309 302 289 275 265 260 257 257 257 257
276 275 275 275 275 274 273 273 273 274 274 275 275 275 275 274 274 274 275 275 276 277 278 281 284 287 294 301 307 312 315 317 315 310 304 295 282 269 261 256 255 254 252
280 278 277 276 275 274 273 273 272 272 272 273 274 274 275 274 274 273 273 273 273 274 274 276 279 283 289 297 303 307 310 312 312 309 305 297 286 274 265 257 253 251 249
284 282 281 280 278 277 276 275 274 273 273 273 273 273 273 273 272 272 271 271 270 270 270 271 274 278 284 291 297 302 305 306 306 304 302 298 289 275 267 258 252 249 246
289 287 285 283 281 280 278 276 274 272 272 271 270 270 270 270 269 269 267 266 264 264 265 267 270 275 281 287 292 295 298 300 300 299 297 295 289 276 268 259 252 247 244
290 288 285 282 279 277 275 272 270 268 267 267 266 265 264 265 264 262 260 258 258 259 262 264 267 272 277 282 285 288 290 291 292 292 291 290 284 274 267 259 249 243 238
292 289 287 284 282 279 276 273 271 269 268 267 265 265 264 263 262 259 257 256 256 258 261 261 265 269 272 276 278 280 282 283 282 283 283 282 276 271 265 257 246 243 240
295 293 292 290 288 286 284 281 278 276 273 271 269 268 267 266 265 263 262 261 261 262 263 264 265 266 267 270 271 271 272 273 272 273 273 273 269 263 259 253 246 242 240
300 299 298 297 297 297 295 294 291 287 283 279 275 272 271 269 268 266 265 264 263 262 262 261 260 260 261 262 262 262 262 263 263 263 263 263 260 256 253 250 245 239 236
305 306 306 306 305 304 303 303 302 298 294 288 283 278 275 273 270 267 265 262 260 257 255 253 251 250 251 253 253 252 252 254 255 255 254 253 252 250 246 244 241 236 229
313 313 312 309 307 305 304 303 302 301 298 295 292 285 280 276 272 266 262 258 253 249 244 240 237 235 238 242 243 244 245 246 247 247 246 246 245 242 239 236 233 230 226
314 311 310 308 306 303 301 299 298 295 292 290 289 287 282 279 273 269 262 255 248 240 233 227 223 220 224 229 234 236 237 238 238 238 237 238 237 233 230 227 225 221 216
314 312 311 309 308 304 300 298 295 292 288 285 282 281 277 274 271 268 264 256 245 236 228 221 216 213 214 219 224 228 230 230 230 229 229 230 229 225 221 218 214 210 203
316 314 312 310 308 305 302 298 295 291 285 281 277 274 270 267 264 261 257 248 238 230 225 220 216 212 210 212 216 220 221 221 221 220 221 222 220 216 212 207 203 196 190
317 315 313 312 310 307 305 301 296 292 285 278 271 266 262 256 252 248 243 236 229 223 220 217 216 213 210 207 209 209 210 211 211 212 213 213 211 206 201 198 193 189 188
320 318 316 315 313 310 307 304 299 294 285 276 268 260 253 245 240 236 234 231 229 226 225 220 216 212 209 203 199 198 200 201 203 205 206 205 202 198 194 191 189 189 191
Height
5882 5880 5879 5877 5875 5872 5870 5868 5865 5862 5859 5856 5853 5851 5849 5847 5845 5844 5842 5841 5839 5838 5836 5833 5831 5829 5826 5824 5821 5819 5817 5816 5815 5814 5814 5814 5814 5815 5816 5816 5816 5817 5818
5876 5874 5872 5870 5868 5866 5863 5860 5857 5855 5852 5850 5847 5845 5843 5841 5839 5838 5837 5836 5834 5832 5830 5827 5824 5821 5818 5815 5812 5809 5808 5807 5806 5805 5805 5806 5807 5806 5807 5807 5807 5808 5809
5869 5867 5865 5862 5860 5857 5855 5852 5850 5848 5846 5843 5841 5838 5837 5835 5834 5833 5832 5831 5829 5827 5824 5821 5818 5815 5811 5807 5803 5800 5798 5798 5797 5796 5796 5797 5798 5798 5798 5799 5799 5799 5800
5862 5859 5856 5853 5851 5849 5846 5844 5842 5841 5838 5836 5834 5832 5831 5830 5829 5827 5826 5824 5822 5820 5817 5814 5811 5807 5803 5800 5796 5792 5789 5787 5787 5786 5786 5787 5788 5789 5790 5791 5791 5792 5791
5853 5850 5847 5845 5843 5841 5838 5836 5835 5833 5831 5829 5827 5826 5825 5824 5822 5821 5819 5817 5815 5813 5810 5807 5804 5801 5797 5792 5788 5784 5780 5777 5776 5775 5776 5777 5778 5779 5781 5782 5783 5783 5783
5843 5840 5837 5836 5834 5832 5831 5828 5827 5825 5823 5822 5820 5819 5818 5817 5815 5814 5812 5810 5808 5805 5803 5800 5797 5793 5790 5786 5781 5777 5772 5769 5766 5765 5765 5766 5768 5770 5771 5773 5774 5774 5775
5836 5832 5829 5828 5826 5825 5823 5821 5819 5817 5816 5814 5813 5812 5810 5809 5807 5806 5804 5802 5800 5798 5795 5792 5789 5786 5783 5779 5774 5769 5765 5761 5758 5756 5755 5756 5758 5760 5761 5763 5765 5765 5766
5831 5828 5825 5822 5819 5817 5815 5813 5811 5809 5807 5806 5805 5803 5802 5800 5798 5797 5795 5793 5791 5789 5787 5784 5782 5779 5775 5772 5768 5763 5758 5754 5750 5748 5746 5746 5747 5749 5751 5753 5755 5756 5757
5823 5821 5818 5815 5812 5809 5807 5804 5802 5800 5798 5797 5796 5794 5792 5790 5788 5787 5785 5783 5781 5779 5778 5776 5773 5771 5767 5764 5761 5757 5752 5747 5743 5740 5738 5737 5738 5739 5741 5743 5745 5747 5748
5815 5812 5808 5805 5802 5799 5796 5793 5791 5789 5787 5786 5785 5784 5782 5780 5779 5777 5775 5773 5771 5769 5768 5766 5764 5762 5759 5756 5753 5750 5746 5741 5737 5733 5731 5729 5729 5730 5731 5733 5735 5737 5739
5804 5801 5797 5793 5790 5787 5784 5782 5779 5776 5774 5773 5772 5771 5770 5768 5767 5765 5764 5762 5760 5759 5757 5756 5754 5752 5750 5748 5745 5742 5739 5735 5731 5727 5724 5722 5721 5721 5722 5724 5725 5727 5729
5793 5788 5784 5780 5777 5773 5770 5767 5765 5762 5759 5757 5756 5754 5754 5753 5752 5752 5751 5749 5748 5747 5746 5745 5744 5742 5741 5739 5737 5735 5732 5729 5725 5721 5718 5716 5714 5713 5714 5715 5717 5719 5720
5779 5775 5770 5766 5762 5758 5754 5751 5748 5745 5742 5740 5738 5736 5735 5735 5735 5736 5735 5735 5735 5734 5733 5733 5733 5732 5731 5730 5729 5727 5725 5722 5719 5716 5713 5710 5708 5707 5707 5708 5709 5711 5713
5765 5760 5755 5750 5745 5741 5737 5733 5729 5726 5723 5720 5718 5717 5715 5715 5716 5717 5718 5719 5719 5720 5720 5720 5721 5721 5721 5720 5720 5719 5717 5715 5713 5710 5707 5704 5702 5701 5701 5701 5703 5704 5706
5749 5743 5737 5732 5727 5722 5717 5712 5708 5705 5702 5699 5697 5695 5694 5694 5694 5696 5698 5700 5702 5704 5705 5706 5707 5708 5709 5710 5710 5709 5708 5707 5705 5703 5701 5698 5696 5695 5695 5695 5696 5698 5700
5731 5724 5718 5712 5706 5700 5695 5690 5685 5682 5679 5677 5675 5673 5671 5672 5672 5674 5677 5680 5683 5686 5689 5691 5693 5695 5697 5698 5699 5699 5699 5699 5698 5697 5695 5693 5691 5689 5689 5690 5691 5693 5695
5709 5701 5693 5686 5679 5673 5668 5663 5660 5656 5653 5650 5649 5648 5647 5648 5651 5652 5654 5658 5662 5666 5671 5675 5678 5681 5683 5686 5688 5689 5690 5690 5690 5689 5688 5687 5685 5684 5684 5685 5686 5687 5689
5682 5673 5664 5657 5650 5643 5637 5632 5629 5625 5622 5621 5619 5619 5619 5621 5624 5627 5630 5635 5640 5645 5651 5657 5662 5666 5669 5672 5675 5677 5679 5680 5680 5681 5681 5680 5679 5679 5679 5680 5681 5682 5683
5655 5646 5638 5630 5624 5618 5612 5607 5603 5597 5594 5592 5590 5590 5590 5592 5595 5598 5603 5608 5615 5622 5629 5636 5643 5649 5653 5657 5661 5665 5667 5669 5671 5672 5673 5673 5673 5674 5674 5675 5676 5677 5679
5634 5627 5620 5614 5608 5602 5595 5590 5585 5579 5575 5571 5569 5568 5568 5568 5570 5572 5576 5581 5588 5597 5606 5615 5624 5631 5637 5642 5647 5652 5655 5658 5661 5663 5665 5666 5666 5667 5669 5670 5671 5673 5675
5622 5615 5609 5602 5596 5589 5583 5578 5572 5567 5562 5558 5555 5553 5552 5552 5552 5552 5554 5558 5563 5571 5581 5592 5603 5613 5621 5626 5632 5638 5643 5647 5650 5653 5656 5658 5659 5661 5663 5665 5667 5668 5670
5612 5605 5598 5591 5583 5576 5569 5564 5559 5554 5549 5546 5543 5541 5540 5540 5539 5539 5540 5541 5544 5550 5560 5571 5583 5594 5603 5611 5617 5625 5631 5636 5640 5644 5647 5650 5653 5655 5657 5659 5662 5664 5667
5600 5592 5584 5576 5569 5560 5553 5547 5543 5538 5534 5531 5530 5529 5529 5529 5529 5529 5529 5529 5532 5536 5543 5554 5565 5577 5587 5596 5604 5612 5619 5626 5631 5636 5640 5643 5646 5649 5652 5654 5657 5660 5663
5588 5578 5569 5561 5553 5545 5537 5530 5525 5520 5517 5515 5515 5515 5516 5518 5519 5520 5520 5522 5524 5528 5533 5541 5551 5562 5573 5584 5592 5600 5609 5616 5623 5628 5632 5637 5640 5644 5647 5650 5653 5657 5661
5574 5564 5554 5546 5537 5529 5521 5513 5507 5502 5498 5497 5497 5499 5503 5506 5510 5512 5514 5517 5520 5524 5528 5535 5542 5552 5562 5573 5583 5592 5601 5609 5615 5621 5626 5631 5635 5639 5643 5646 5650 5655 5659
5561 5550 5540 5530 5522 5513 5505 5497 5489 5483 5480 5479 5480 5483 5488 5494 5500 5504 5508 5511 5515 5519 5524 5529 5536 5545 5554 5565 5575 5585 5593 5601 5608 5615 5621 5626 5631 5636 5640 5644 5649 5653 5658